NOK1123 VTSP-VTBD

Flight info

Callsign NOK1123
Flight time 1h 9m
Altitude 35000
Route IGEVI1A IGEVI Y5 EGUBO Y99 HOTEL SABAI3A
Aircraft B738/M-SDE2E3FGHIRWXY/LB1

Departure

Time 2026-05-05 03:02
Airport Phuket International Airport (VTSP)

Arrival

Time 2026-05-05 04:11
Airport Don Mueang International Airport (VTBD)
Time Latitude Longitude Altitude Speed Heading
2026-05-05 02:49 8.10652 98.30484 -2 ft 0 kts 103°
2026-05-05 02:54 8.10652 98.30483 -2 ft 1 kts 103°
2026-05-05 02:55 8.10656 98.30467 -2 ft 2 kts 103°
2026-05-05 02:55 8.10660 98.30451 -2 ft 2 kts 103°
2026-05-05 02:55 8.10663 98.30435 -3 ft 2 kts 103°
2026-05-05 02:55 8.10667 98.30419 -3 ft 2 kts 99°
2026-05-05 02:56 8.10668 98.30402 -3 ft 2 kts 78°
2026-05-05 02:56 8.10659 98.30390 -4 ft 2 kts 13°
2026-05-05 02:56 8.10643 98.30387 -4 ft 2 kts 13°
2026-05-05 02:56 8.10629 98.30383 -4 ft 1 kts 13°
2026-05-05 02:57 8.10626 98.30383 -4 ft 0 kts 13°
2026-05-05 02:58 8.10630 98.30383 -4 ft 3 kts 13°
2026-05-05 02:58 8.10666 98.30392 -4 ft 7 kts 14°
2026-05-05 02:58 8.10716 98.30405 -3 ft 7 kts 14°
2026-05-05 02:58 8.10764 98.30417 -3 ft 7 kts 14°
2026-05-05 02:59 8.10811 98.30429 -3 ft 7 kts 14°
2026-05-05 02:59 8.10858 98.30441 -2 ft 7 kts 14°
2026-05-05 02:59 8.10903 98.30453 -2 ft 7 kts 14°
2026-05-05 02:59 8.10947 98.30465 -2 ft 7 kts 14°
2026-05-05 03:00 8.10991 98.30476 -1 ft 6 kts 15°
2026-05-05 03:00 8.11036 98.30490 -1 ft 8 kts 18°
2026-05-05 03:00 8.11086 98.30504 -1 ft 7 kts 15°
2026-05-05 03:00 8.11134 98.30517 -2 ft 7 kts 15°
2026-05-05 03:01 8.11180 98.30530 -2 ft 7 kts 15°
2026-05-05 03:01 8.11214 98.30560 -1 ft 7 kts 75°
2026-05-05 03:01 8.11218 98.30582 -1 ft 1 kts 85°
2026-05-05 03:01 8.11233 98.30755 4 ft 63 kts 84°
2026-05-05 03:02 8.11299 98.31457 23 ft 136 kts 84°
2026-05-05 03:02 8.11402 98.32592 298 ft 177 kts 84°
2026-05-05 03:02 8.11508 98.33825 1344 ft 174 kts 85°
2026-05-05 03:02 8.11627 98.35044 2237 ft 182 kts 84°
2026-05-05 03:03 8.11759 98.36412 2551 ft 210 kts 85°
2026-05-05 03:03 8.11906 98.37963 2784 ft 232 kts 85°
2026-05-05 03:03 8.12061 98.39591 3234 ft 245 kts 86°
2026-05-05 03:03 8.12227 98.41368 3688 ft 260 kts 85°
2026-05-05 03:04 8.12398 98.43186 4548 ft 260 kts 85°
2026-05-05 03:04 8.12569 98.45008 5398 ft 261 kts 86°
2026-05-05 03:04 8.12741 98.46845 6193 ft 265 kts 86°
2026-05-05 03:04 8.12914 98.48704 6940 ft 267 kts 85°
2026-05-05 03:05 8.13088 98.50578 7680 ft 270 kts 85°
2026-05-05 03:05 8.13264 98.52480 8425 ft 273 kts 85°
2026-05-05 03:05 8.13442 98.54399 9167 ft 276 kts 85°
2026-05-05 03:05 8.13624 98.56345 9879 ft 280 kts 83°
2026-05-05 03:06 8.14186 98.58247 10369 ft 294 kts 62°
2026-05-05 03:06 8.15515 98.59887 10692 ft 312 kts 41°
2026-05-05 03:06 8.17399 98.61025 11249 ft 322 kts 22°
2026-05-05 03:06 8.19615 98.61440 11922 ft 328 kts
2026-05-05 03:07 8.21905 98.61528 12586 ft 331 kts
2026-05-05 03:07 8.24225 98.61575 13217 ft 335 kts
2026-05-05 03:07 8.26571 98.61627 13841 ft 339 kts
2026-05-05 03:07 8.28936 98.61697 14417 ft 342 kts
2026-05-05 03:08 8.31324 98.61778 14995 ft 345 kts
2026-05-05 03:08 8.33732 98.61842 15554 ft 349 kts 359°
2026-05-05 03:08 8.36080 98.61298 16052 ft 358 kts 338°
2026-05-05 03:08 8.38200 98.59864 16184 ft 378 kts 320°
2026-05-05 03:09 8.40198 98.58051 16317 ft 394 kts 319°
2026-05-05 03:09 8.42240 98.56141 16561 ft 404 kts 319°
2026-05-05 03:09 8.44314 98.54203 16997 ft 408 kts 319°
2026-05-05 03:09 8.46409 98.52265 17531 ft 409 kts 319°
2026-05-05 03:10 8.48524 98.50327 18025 ft 411 kts 319°
2026-05-05 03:10 8.50659 98.48385 18425 ft 415 kts 319°
2026-05-05 03:10 8.52812 98.46430 18821 ft 417 kts 319°
2026-05-05 03:10 8.54974 98.44467 19244 ft 419 kts 319°
2026-05-05 03:11 8.57156 98.42504 19650 ft 421 kts 322°
2026-05-05 03:11 8.59670 98.41024 19976 ft 420 kts 343°
2026-05-05 03:11 8.62524 98.40508 20388 ft 417 kts
2026-05-05 03:11 8.65394 98.40807 20777 ft 415 kts 17°
2026-05-05 03:12 8.68094 98.41839 21140 ft 416 kts 25°
2026-05-05 03:12 8.70748 98.43031 21479 ft 419 kts 26°
2026-05-05 03:12 8.73405 98.44254 21804 ft 421 kts 26°
2026-05-05 03:12 8.76080 98.45482 22142 ft 424 kts 26°
2026-05-05 03:13 8.78779 98.46707 22485 ft 426 kts 25°
2026-05-05 03:13 8.81496 98.47926 22802 ft 428 kts 25°
2026-05-05 03:13 8.84231 98.49145 23129 ft 431 kts 25°
2026-05-05 03:13 8.86981 98.50365 23449 ft 433 kts 25°
2026-05-05 03:14 8.89744 98.51589 23714 ft 435 kts 25°
2026-05-05 03:14 8.92519 98.52819 23990 ft 436 kts 25°
2026-05-05 03:14 8.95270 98.54038 24262 ft 438 kts 25°
2026-05-05 03:14 8.98062 98.55276 24533 ft 439 kts 25°
2026-05-05 03:15 9.00837 98.56508 24788 ft 440 kts 25°
2026-05-05 03:15 9.03653 98.57758 25040 ft 442 kts 25°
2026-05-05 03:15 9.06474 98.59010 25284 ft 444 kts 25°
2026-05-05 03:15 9.09310 98.60265 25530 ft 445 kts 24°
2026-05-05 03:16 9.12159 98.61512 25783 ft 447 kts 24°
2026-05-05 03:16 9.15019 98.62757 26014 ft 448 kts 24°
2026-05-05 03:16 9.17887 98.64004 26249 ft 450 kts 24°
2026-05-05 03:16 9.20732 98.65241 26482 ft 451 kts 24°
2026-05-05 03:17 9.23620 98.66500 26713 ft 453 kts 24°
2026-05-05 03:17 9.26517 98.67763 26935 ft 454 kts 24°
2026-05-05 03:17 9.29423 98.69032 27155 ft 455 kts 24°
2026-05-05 03:17 9.32335 98.70304 27373 ft 457 kts 24°
2026-05-05 03:18 9.35259 98.71581 27585 ft 458 kts 24°
2026-05-05 03:18 9.38190 98.72862 27817 ft 459 kts 24°
2026-05-05 03:18 9.41115 98.74140 28073 ft 459 kts 24°
2026-05-05 03:18 9.44059 98.75427 28219 ft 461 kts 24°
2026-05-05 03:19 9.49963 98.78008 28608 ft 464 kts 24°
2026-05-05 03:19 9.52927 98.79305 28814 ft 464 kts 24°
2026-05-05 03:19 9.55900 98.80605 28994 ft 466 kts 24°
2026-05-05 03:20 9.58870 98.81931 29148 ft 468 kts 25°
2026-05-05 03:20 9.61819 98.83333 29354 ft 468 kts 26°
2026-05-05 03:20 9.64762 98.84774 29524 ft 469 kts 26°
2026-05-05 03:20 9.67674 98.86213 30001 ft 463 kts 26°
2026-05-05 03:21 9.70535 98.87625 30199 ft 464 kts 26°
2026-05-05 03:21 9.73445 98.89054 30351 ft 465 kts 26°
2026-05-05 03:21 9.76362 98.90478 30511 ft 466 kts 25°
2026-05-05 03:21 9.79276 98.91896 30832 ft 462 kts 25°
2026-05-05 03:22 9.82165 98.93299 31181 ft 459 kts 25°
2026-05-05 03:22 9.85052 98.94700 31326 ft 461 kts 25°
2026-05-05 03:22 9.87941 98.96102 31560 ft 460 kts 25°
2026-05-05 03:22 9.90831 98.97504 31763 ft 460 kts 25°
2026-05-05 03:23 9.93715 98.98904 32045 ft 458 kts 25°
2026-05-05 03:23 9.96584 99.00298 32302 ft 458 kts 25°
2026-05-05 03:23 9.99457 99.01694 32514 ft 457 kts 25°
2026-05-05 03:23 10.02311 99.03081 32784 ft 456 kts 25°
2026-05-05 03:24 10.05172 99.04471 33010 ft 456 kts 25°
2026-05-05 03:24 10.08028 99.05860 33293 ft 454 kts 25°
2026-05-05 03:24 10.10881 99.07248 33415 ft 457 kts 25°
2026-05-05 03:24 10.13758 99.08646 33564 ft 458 kts 25°
2026-05-05 03:25 10.16628 99.10043 33802 ft 458 kts 25°
2026-05-05 03:25 10.19512 99.11446 33920 ft 460 kts 25°
2026-05-05 03:25 10.22402 99.12853 34102 ft 461 kts 25°
2026-05-05 03:25 10.25257 99.14242 34331 ft 459 kts 25°
2026-05-05 03:26 10.28129 99.15641 34580 ft 458 kts 25°
2026-05-05 03:26 10.31000 99.17039 34773 ft 458 kts 25°
2026-05-05 03:26 10.33910 99.18456 34920 ft 458 kts 25°
2026-05-05 03:26 10.36755 99.19842 34915 ft 461 kts 25°
2026-05-05 03:27 10.42528 99.22656 34924 ft 458 kts 25°
2026-05-05 03:27 10.48264 99.25452 34930 ft 456 kts 24°
2026-05-05 03:28 10.53979 99.28240 34925 ft 455 kts 24°
2026-05-05 03:28 10.59689 99.31026 34926 ft 455 kts 24°
2026-05-05 03:29 10.65406 99.33818 34924 ft 457 kts 24°
2026-05-05 03:29 10.71087 99.36770 34904 ft 460 kts 32°
2026-05-05 03:30 10.76002 99.40921 34938 ft 460 kts 41°
2026-05-05 03:30 10.80708 99.45346 34938 ft 461 kts 41°
2026-05-05 03:31 10.85444 99.49752 34931 ft 461 kts 41°
2026-05-05 03:31 10.90213 99.54141 34935 ft 463 kts 41°
2026-05-05 03:32 10.95000 99.58536 34932 ft 464 kts 41°
2026-05-05 03:32 10.99791 99.62938 34933 ft 465 kts 41°
2026-05-05 03:33 11.04551 99.67316 34935 ft 466 kts 41°
2026-05-05 03:33 11.09301 99.71688 34947 ft 470 kts 41°
2026-05-05 03:34 11.14190 99.76188 34945 ft 476 kts 41°
2026-05-05 03:34 11.19076 99.80790 34934 ft 481 kts 42°
2026-05-05 03:35 11.23969 99.85472 34934 ft 483 kts 42°
2026-05-05 03:35 11.28877 99.90158 34936 ft 485 kts 42°
2026-05-05 03:36 11.32987 99.94073 34931 ft 486 kts 41°
2026-05-05 03:36 11.38742 99.99556 34932 ft 487 kts 42°
2026-05-05 03:37 11.43616 100.04201 34934 ft 488 kts 41°
2026-05-05 03:37 11.48277 100.07447 34940 ft 484 kts 24°
2026-05-05 03:38 11.54682 100.09387 34942 ft 481 kts
2026-05-05 03:38 11.61265 100.10347 34936 ft 481 kts
2026-05-05 03:39 11.67896 100.11346 34933 ft 482 kts
2026-05-05 03:39 11.74527 100.12411 34932 ft 482 kts
2026-05-05 03:40 11.81151 100.13483 34936 ft 482 kts
2026-05-05 03:40 11.87783 100.14557 34943 ft 482 kts
2026-05-05 03:41 11.94411 100.15641 34934 ft 483 kts
2026-05-05 03:41 12.01027 100.16724 34936 ft 483 kts
2026-05-05 03:42 12.07638 100.17806 34923 ft 474 kts
2026-05-05 03:42 12.10857 100.18333 34919 ft 463 kts
2026-05-05 03:42 12.14030 100.18853 34927 ft 460 kts
2026-05-05 03:43 12.20331 100.19884 34933 ft 458 kts
2026-05-05 03:43 12.26611 100.20911 34937 ft 456 kts
2026-05-05 03:44 12.32838 100.21931 34913 ft 457 kts
2026-05-05 03:44 12.36007 100.22449 34409 ft 464 kts
2026-05-05 03:44 12.39173 100.22968 34035 ft 459 kts
2026-05-05 03:45 12.42314 100.23484 33534 ft 456 kts
2026-05-05 03:45 12.45436 100.23996 33076 ft 452 kts
2026-05-05 03:45 12.48530 100.24505 32626 ft 449 kts
2026-05-05 03:45 12.51606 100.25009 32185 ft 445 kts
2026-05-05 03:46 12.54660 100.25511 31758 ft 442 kts
2026-05-05 03:46 12.57685 100.26007 31325 ft 440 kts
2026-05-05 03:46 12.60698 100.26502 30873 ft 438 kts
2026-05-05 03:46 12.63696 100.26994 30449 ft 435 kts
2026-05-05 03:47 12.66681 100.27484 30007 ft 434 kts
2026-05-05 03:47 12.69657 100.27973 29518 ft 431 kts
2026-05-05 03:47 12.72607 100.28458 29064 ft 428 kts
2026-05-05 03:47 12.75533 100.28940 28611 ft 424 kts
2026-05-05 03:48 12.78438 100.29417 28173 ft 421 kts
2026-05-05 03:48 12.81319 100.29891 27740 ft 418 kts
2026-05-05 03:48 12.84177 100.30361 27315 ft 415 kts
2026-05-05 03:48 12.87017 100.30829 26895 ft 412 kts
2026-05-05 03:49 12.89836 100.31293 26474 ft 409 kts
2026-05-05 03:49 12.92636 100.31754 26058 ft 407 kts
2026-05-05 03:49 12.95422 100.32213 25627 ft 405 kts
2026-05-05 03:49 12.98198 100.32670 25213 ft 403 kts
2026-05-05 03:50 13.00957 100.33041 24775 ft 401 kts
2026-05-05 03:50 13.03741 100.33029 24313 ft 400 kts 357°
2026-05-05 03:50 13.06514 100.32915 23878 ft 399 kts 357°
2026-05-05 03:50 13.09285 100.32822 23444 ft 397 kts 358°
2026-05-05 03:51 13.12045 100.32755 22966 ft 395 kts 358°
2026-05-05 03:51 13.14785 100.32741 22546 ft 392 kts 359°
2026-05-05 03:51 13.17501 100.32767 22143 ft 389 kts 360°
2026-05-05 03:51 13.20191 100.32793 21760 ft 385 kts 360°
2026-05-05 03:52 13.22825 100.32813 21351 ft 382 kts 360°
2026-05-05 03:52 13.25481 100.32829 20968 ft 379 kts 360°
2026-05-05 03:52 13.28112 100.32842 20571 ft 376 kts 360°
2026-05-05 03:52 13.30720 100.32856 20172 ft 374 kts 360°
2026-05-05 03:53 13.33318 100.32870 19783 ft 372 kts 360°
2026-05-05 03:53 13.35902 100.32884 19388 ft 371 kts 360°
2026-05-05 03:53 13.38476 100.32898 18984 ft 369 kts
2026-05-05 03:53 13.41040 100.32912 18598 ft 368 kts
2026-05-05 03:54 13.43597 100.32926 18198 ft 367 kts
2026-05-05 03:54 13.46130 100.32711 17760 ft 365 kts 348°
2026-05-05 03:54 13.48578 100.32088 17394 ft 361 kts 345°
2026-05-05 03:54 13.50998 100.31419 17006 ft 359 kts 345°
2026-05-05 03:55 13.53403 100.30780 16624 ft 356 kts 346°
2026-05-05 03:55 13.55805 100.30171 16248 ft 353 kts 347°
2026-05-05 03:55 13.58187 100.29581 15875 ft 351 kts 347°
2026-05-05 03:55 13.60555 100.28997 15523 ft 349 kts 347°
2026-05-05 03:56 13.62906 100.28417 15172 ft 346 kts 347°
2026-05-05 03:56 13.65243 100.27840 14814 ft 345 kts 347°
2026-05-05 03:56 13.67569 100.27265 14452 ft 343 kts 347°
2026-05-05 03:56 13.69857 100.26698 14086 ft 342 kts 348°
2026-05-05 03:57 13.72165 100.26127 13724 ft 341 kts 347°
2026-05-05 03:57 13.74503 100.25833 13291 ft 338 kts
2026-05-05 03:57 13.76744 100.26432 12952 ft 332 kts 27°
2026-05-05 03:57 13.78728 100.27613 12613 ft 328 kts 32°
2026-05-05 03:58 13.80650 100.28859 12282 ft 325 kts 33°
2026-05-05 03:58 13.82538 100.30070 12176 ft 314 kts 32°
2026-05-05 03:58 13.84376 100.31235 12042 ft 306 kts 32°
2026-05-05 03:58 13.86173 100.32366 11832 ft 301 kts 32°
2026-05-05 03:59 13.87959 100.33488 11528 ft 300 kts 32°
2026-05-05 03:59 13.89734 100.34601 11227 ft 298 kts 32°
2026-05-05 03:59 13.91500 100.35710 10927 ft 297 kts 32°
2026-05-05 03:59 13.93261 100.36815 10632 ft 296 kts 32°
2026-05-05 04:00 13.95016 100.37918 10324 ft 295 kts 32°
2026-05-05 04:00 13.96749 100.39007 10175 ft 288 kts 32°
2026-05-05 04:00 13.98443 100.40070 10016 ft 282 kts 32°
2026-05-05 04:00 14.00107 100.41116 9729 ft 282 kts 32°
2026-05-05 04:01 14.01779 100.42166 9431 ft 281 kts 32°
2026-05-05 04:01 14.03440 100.43210 9137 ft 279 kts 32°
2026-05-05 04:01 14.05096 100.44251 8848 ft 278 kts 32°
2026-05-05 04:01 14.06744 100.45287 8623 ft 275 kts 32°
2026-05-05 04:02 14.08355 100.46300 8487 ft 268 kts 32°
2026-05-05 04:02 14.09922 100.47285 8371 ft 261 kts 33°
2026-05-05 04:02 14.11451 100.48247 8254 ft 254 kts 33°
2026-05-05 04:02 14.12949 100.49189 8046 ft 251 kts 33°
2026-05-05 04:03 14.14417 100.50114 7813 ft 250 kts 33°
2026-05-05 04:03 14.15895 100.51044 7580 ft 248 kts 33°
2026-05-05 04:03 14.17366 100.51970 7332 ft 248 kts 33°
2026-05-05 04:03 14.18829 100.52896 7083 ft 246 kts 36°
2026-05-05 04:04 14.19968 100.54162 6807 ft 241 kts 68°
2026-05-05 04:04 14.20297 100.55817 6601 ft 235 kts 91°
2026-05-05 04:04 14.20153 100.57489 6344 ft 234 kts 98°
2026-05-05 04:04 14.19919 100.59146 6087 ft 234 kts 99°
2026-05-05 04:05 14.19689 100.60802 5830 ft 233 kts 99°
2026-05-05 04:05 14.19468 100.62460 5578 ft 233 kts 98°
2026-05-05 04:05 14.19252 100.64115 5327 ft 233 kts 98°
2026-05-05 04:05 14.18756 100.65688 5048 ft 233 kts 126°
2026-05-05 04:06 14.17562 100.66754 4962 ft 228 kts 150°
2026-05-05 04:06 14.16057 100.67323 4843 ft 233 kts 164°
2026-05-05 04:06 14.14478 100.67748 4718 ft 236 kts 163°
2026-05-05 04:06 14.12882 100.68186 4606 ft 239 kts 162°
2026-05-05 04:07 14.11269 100.68636 4443 ft 240 kts 162°
2026-05-05 04:07 14.09652 100.69092 4117 ft 241 kts 162°
2026-05-05 04:07 14.08014 100.69549 3580 ft 247 kts 166°
2026-05-05 04:07 14.06291 100.69503 3040 ft 255 kts 200°
2026-05-05 04:08 14.04842 100.68484 2698 ft 252 kts 219°
2026-05-05 04:08 14.03445 100.67410 2356 ft 248 kts 213°
2026-05-05 04:08 14.01987 100.66505 2033 ft 239 kts 209°
2026-05-05 04:08 14.00574 100.65715 1752 ft 225 kts 209°
2026-05-05 04:09 13.99243 100.64970 1470 ft 210 kts 210°
2026-05-05 04:09 13.98003 100.64270 1216 ft 197 kts 210°
2026-05-05 04:09 13.96862 100.63625 983 ft 180 kts 209°
2026-05-05 04:09 13.95800 100.63025 741 ft 165 kts 209°
2026-05-05 04:10 13.94799 100.62465 512 ft 163 kts 211°
2026-05-05 04:10 13.93826 100.61908 319 ft 162 kts 210°
2026-05-05 04:10 13.92828 100.61351 92 ft 163 kts 210°
2026-05-05 04:10 13.91877 100.60813 12 ft 140 kts 208°
2026-05-05 04:11 13.91217 100.60444 11 ft 76 kts 208°
2026-05-05 04:11 13.90856 100.60240 13 ft 52 kts 208°
2026-05-05 04:11 13.90647 100.60082 12 ft 26 kts 231°
2026-05-05 04:11 13.90588 100.59978 11 ft 12 kts 266°
2026-05-05 04:12 13.90638 100.59932 12 ft 11 kts 14°
2026-05-05 04:12 13.90706 100.59969 12 ft 11 kts 30°
2026-05-05 04:12 13.90771 100.60008 13 ft 11 kts 30°
2026-05-05 04:12 13.90834 100.60044 12 ft 10 kts 24°
2026-05-05 04:13 13.90898 100.60075 12 ft 10 kts 27°
2026-05-05 04:13 13.90955 100.60106 12 ft 10 kts 28°
2026-05-05 04:13 13.91014 100.60138 12 ft 10 kts 28°
2026-05-05 04:13 13.91072 100.60170 12 ft 9 kts 28°
2026-05-05 04:14 13.91123 100.60198 12 ft 9 kts 30°
2026-05-05 04:14 13.91183 100.60235 12 ft 10 kts 30°
2026-05-05 04:14 13.91242 100.60269 13 ft 10 kts 28°
2026-05-05 04:14 13.91301 100.60301 11 ft 9 kts 28°
2026-05-05 04:15 13.91358 100.60332 11 ft 9 kts 28°
2026-05-05 04:15 13.91414 100.60364 11 ft 9 kts 29°
2026-05-05 04:15 13.91468 100.60394 11 ft 9 kts 28°
2026-05-05 04:15 13.91520 100.60423 11 ft 8 kts 28°
2026-05-05 04:16 13.91570 100.60451 11 ft 8 kts 28°